TimePST,TemperatureF,Dew PointF,Humidity,Sea Level PressureIn,VisibilityMPH,Wind Direction,Wind SpeedMPH,Gust SpeedMPH,PrecipitationIn,Events,Conditions,WindDirDegrees,DateUTC
12:15 AM,37.4,35.6,93,29.89,4.0,East,5.8,-,N/A,,Clear,90,2012-11-09 08:15:00
12:35 AM,37.4,37.4,100,29.89,1.0,East,5.8,-,N/A,,Mist,100,2012-11-09 08:35:00
12:55 AM,37.4,37.4,100,29.90,3.0,ESE,3.5,-,N/A,,Mostly Cloudy,110,2012-11-09 08:55:00
1:15 AM,37.4,37.4,100,29.90,10.0,Calm,Calm,-,N/A,,Mostly Cloudy,0,2012-11-09 09:15:00
1:35 AM,37.4,37.4,100,29.90,10.0,East,3.5,-,N/A,,Clear,100,2012-11-09 09:35:00
1:55 AM,37.4,37.4,100,29.90,10.0,ENE,3.5,-,N/A,,Clear,70,2012-11-09 09:55:00
2:15 AM,37.4,35.6,93,29.90,7.0,Calm,Calm,-,N/A,,Clear,0,2012-11-09 10:15:00
2:35 AM,37.4,37.4,100,29.90,10.0,ESE,5.8,-,N/A,,Scattered Clouds,110,2012-11-09 10:35:00
2:55 AM,37.4,37.4,100,29.90,10.0,SE,3.5,-,N/A,,Clear,140,2012-11-09 10:55:00
3:15 AM,37.4,37.4,100,29.91,10.0,Calm,Calm,-,N/A,,Mostly Cloudy,0,2012-11-09 11:15:00
3:35 AM,39.2,39.2,100,29.91,7.0,Calm,Calm,-,N/A,Rain,Light Rain,0,2012-11-09 11:35:00
3:55 AM,42.8,41.0,93,29.91,5.0,SW,3.5,-,0.02,Rain,Rain,230,2012-11-09 11:55:00
4:15 AM,41.0,41.0,100,29.91,7.0,SSE,6.9,-,0.02,Rain,Rain,160,2012-11-09 12:15:00
4:35 AM,41.0,41.0,100,29.90,10.0,SSE,4.6,-,0.02,,Overcast,150,2012-11-09 12:35:00
4:55 AM,41.0,41.0,100,29.90,10.0,South,5.8,-,0.02,,Mostly Cloudy,180,2012-11-09 12:55:00
5:15 AM,39.2,39.2,100,29.91,10.0,Calm,Calm,-,N/A,,Mostly Cloudy,0,2012-11-09 13:15:00
5:35 AM,39.2,39.2,100,29.91,10.0,Calm,Calm,-,N/A,,Overcast,0,2012-11-09 13:35:00
5:55 AM,41.0,39.2,93,29.91,10.0,South,3.5,-,N/A,,Overcast,190,2012-11-09 13:55:00
6:15 AM,41.0,39.2,93,29.91,10.0,SSE,3.5,-,N/A,,Overcast,160,2012-11-09 14:15:00
6:35 AM,41.0,41.0,100,29.91,10.0,Calm,Calm,-,0.01,,Light Drizzle,0,2012-11-09 14:35:00
6:55 AM,41.0,39.2,93,29.92,10.0,ENE,3.5,-,0.01,,Overcast,70,2012-11-09 14:55:00
7:15 AM,41.0,39.2,93,29.93,10.0,Calm,Calm,-,N/A,,Overcast,0,2012-11-09 15:15:00
7:35 AM,41.0,39.2,93,29.93,10.0,Calm,Calm,-,N/A,Rain,Rain,0,2012-11-09 15:35:00
7:55 AM,41.0,41.0,100,29.93,7.0,Calm,Calm,-,N/A,,Light Drizzle,0,2012-11-09 15:55:00
8:15 AM,42.8,42.8,100,29.93,5.0,South,6.9,-,N/A,,Overcast,180,2012-11-09 16:15:00
8:35 AM,42.8,41.0,93,29.93,7.0,South,6.9,-,N/A,,Overcast,180,2012-11-09 16:35:00
8:55 AM,42.8,41.0,93,29.93,7.0,South,5.8,-,N/A,,Overcast,170,2012-11-09 16:55:00
9:15 AM,42.8,41.0,93,29.93,10.0,South,5.8,-,N/A,,Overcast,180,2012-11-09 17:15:00
9:35 AM,42.8,42.8,100,29.93,10.0,South,8.1,-,N/A,,Mostly Cloudy,190,2012-11-09 17:35:00
9:55 AM,44.6,42.8,93,29.93,10.0,South,9.2,-,N/A,,Mostly Cloudy,190,2012-11-09 17:55:00
10:15 AM,44.6,42.8,93,29.93,10.0,SSW,6.9,-,N/A,,Scattered Clouds,200,2012-11-09 18:15:00
10:35 AM,46.4,41.0,81,29.93,10.0,South,4.6,-,N/A,,Clear,170,2012-11-09 18:35:00
10:55 AM,46.4,41.0,81,29.93,10.0,SSW,9.2,-,N/A,,Mostly Cloudy,210,2012-11-09 18:55:00
11:15 AM,46.4,42.8,87,29.93,7.0,SW,6.9,-,N/A,,Mostly Cloudy,220,2012-11-09 19:15:00
11:35 AM,48.2,41.0,76,29.93,5.0,SSW,9.2,-,N/A,,Haze,200,2012-11-09 19:35:00
11:55 AM,48.2,41.0,76,29.92,7.0,South,8.1,-,N/A,,Scattered Clouds,190,2012-11-09 19:55:00
12:15 PM,48.2,41.0,76,-9999,7.0,SSW,11.5,-,N/A,,Mostly Cloudy,210,2012-11-09 20:15:00
12:35 PM,46.4,41.0,81,29.91,10.0,SSW,11.5,-,N/A,,Overcast,210,2012-11-09 20:35:00
12:55 PM,39.2,35.6,87,29.92,1.0,Calm,Calm,-,0.17,Rain,Heavy Rain,0,2012-11-09 20:55:00
1:15 PM,42.8,41.0,93,29.91,-9999.0,Calm,Calm,-,N/A,,Unknown,0,2012-11-09 21:15:00
1:35 PM,44.6,41.0,87,29.91,10.0,South,5.8,-,N/A,,Mostly Cloudy,170,2012-11-09 21:35:00
1:55 PM,46.4,41.0,81,29.91,10.0,South,8.1,-,N/A,,Mostly Cloudy,170,2012-11-09 21:55:00
2:15 PM,44.6,41.0,87,29.90,10.0,SSW,6.9,-,N/A,,Mostly Cloudy,200,2012-11-09 22:15:00
2:35 PM,44.6,41.0,87,29.90,7.0,SSE,4.6,-,N/A,,Scattered Clouds,160,2012-11-09 22:35:00
2:55 PM,46.4,41.0,81,29.90,10.0,South,5.8,-,N/A,,Scattered Clouds,170,2012-11-09 22:55:00
3:15 PM,46.4,41.0,81,29.89,10.0,South,4.6,-,N/A,,Mostly Cloudy,180,2012-11-09 23:15:00
3:35 PM,46.4,41.0,81,29.89,10.0,South,5.8,-,N/A,,Mostly Cloudy,180,2012-11-09 23:35:00
3:55 PM,46.4,41.0,81,29.89,10.0,South,3.5,-,N/A,,Mostly Cloudy,180,2012-11-09 23:55:00
4:15 PM,44.6,41.0,87,29.89,10.0,South,4.6,-,N/A,,Mostly Cloudy,180,2012-11-10 00:15:00
4:35 PM,44.6,41.0,87,29.89,10.0,WSW,3.5,-,N/A,,Mostly Cloudy,240,2012-11-10 00:35:00
4:55 PM,42.8,41.0,93,29.90,10.0,South,3.5,-,N/A,,Mostly Cloudy,180,2012-11-10 00:55:00
5:15 PM,42.8,41.0,93,29.90,10.0,South,4.6,-,N/A,,Overcast,190,2012-11-10 01:15:00
5:35 PM,42.8,41.0,93,29.90,10.0,WSW,5.8,-,N/A,,Overcast,240,2012-11-10 01:35:00
5:55 PM,44.6,41.0,87,29.90,10.0,WNW,8.1,-,0.01,,Overcast,290,2012-11-10 01:55:00
6:15 PM,42.8,39.2,87,29.90,7.0,ENE,4.6,-,0.09,Rain,Light Rain,70,2012-11-10 02:15:00
6:35 PM,41.0,39.2,93,29.90,10.0,East,4.6,-,0.10,,Mostly Cloudy,90,2012-11-10 02:35:00
6:55 PM,41.0,37.4,87,29.91,10.0,Calm,Calm,-,0.10,,Mostly Cloudy,0,2012-11-10 02:55:00
7:15 PM,41.0,39.2,93,-9999,10.0,ENE,4.6,-,N/A,,Overcast,70,2012-11-10 03:15:00
7:35 PM,41.0,39.2,93,29.90,10.0,East,5.8,-,N/A,,Overcast,100,2012-11-10 03:35:00
7:55 PM,41.0,41.0,100,29.91,10.0,East,3.5,-,N/A,,Drizzle,90,2012-11-10 03:55:00
8:15 PM,41.0,41.0,100,29.93,7.0,Calm,Calm,-,0.01,Rain,Rain,0,2012-11-10 04:15:00
8:35 PM,41.0,39.2,93,29.92,10.0,East,4.6,-,0.01,,Mostly Cloudy,100,2012-11-10 04:35:00
8:55 PM,41.0,37.4,87,29.92,10.0,SE,3.5,-,0.01,,Scattered Clouds,140,2012-11-10 04:55:00
9:15 PM,39.2,37.4,93,29.92,10.0,Calm,Calm,-,N/A,,Scattered Clouds,0,2012-11-10 05:15:00
9:35 PM,37.4,37.4,100,29.93,10.0,East,3.5,-,N/A,,Scattered Clouds,90,2012-11-10 05:35:00
9:55 PM,37.4,35.6,93,29.93,10.0,Calm,Calm,-,N/A,,Clear,0,2012-11-10 05:55:00
10:15 PM,35.6,33.8,93,29.93,4.0,ESE,3.5,-,N/A,,Clear,110,2012-11-10 06:15:00
10:35 PM,35.6,33.8,93,29.93,10.0,ESE,4.6,-,N/A,,Clear,110,2012-11-10 06:35:00
10:55 PM,35.6,35.6,100,29.94,10.0,East,4.6,-,N/A,,Clear,90,2012-11-10 06:55:00
11:15 PM,33.8,33.8,100,29.95,10.0,Calm,Calm,-,N/A,,Clear,0,2012-11-10 07:15:00
11:35 PM,35.6,35.6,100,29.95,7.0,East,3.5,-,N/A,,Clear,80,2012-11-10 07:35:00
11:55 PM,33.8,33.8,100,29.96,1.0,East,5.8,-,N/A,,Mostly Cloudy,80,2012-11-10 07:55:00